Temperature
-3 -3 -4 -4 -5 -5 -6 -5 -5 -5 -5 -5 -5 -4 -4 -3 -3 -2 -2 -0 2 3 4 4 4 5 7 8 9 10 11 12 13 14 15 15 15 16 16 16 16 16 17
-5 -5 -6 -6 -7 -7 -7 -8 -8 -7 -7 -7 -6 -6 -5 -4 -4 -3 -3 -2 0 2 2 3 4 4 5 6 8 9 10 11 12 13 14 15 15 15 16 16 16 16 16
-6 -7 -7 -7 -8 -8 -9 -9 -9 -9 -9 -9 -8 -7 -7 -6 -5 -4 -3 -3 -2 -0 1 2 2 3 3 4 6 7 9 10 11 12 13 14 15 15 15 16 16 16 16
-7 -7 -8 -9 -9 -10 -10 -10 -10 -10 -10 -10 -9 -9 -8 -7 -6 -5 -4 -3 -3 -2 -1 -0 0 1 2 3 4 6 8 9 10 12 13 14 14 15 15 15 15 16 16
-7 -8 -9 -10 -10 -10 -10 -11 -11 -11 -11 -11 -10 -10 -9 -8 -7 -6 -5 -4 -4 -3 -3 -2 -1 -0 1 2 4 5 7 8 9 11 12 13 14 15 15 15 15 16 16
-8 -9 -10 -10 -11 -11 -11 -11 -11 -11 -11 -11 -11 -11 -10 -9 -7 -6 -5 -5 -4 -3 -3 -3 -3 -2 -0 1 3 4 6 8 9 10 11 13 14 14 15 15 15 15 16
-9 -9 -10 -10 -11 -11 -11 -12 -12 -12 -12 -12 -11 -11 -10 -9 -7 -6 -6 -5 -4 -4 -4 -4 -3 -2 -2 -0 2 4 6 7 8 9 11 12 13 14 14 15 15 15 15
-9 -10 -10 -11 -11 -12 -12 -12 -12 -12 -12 -12 -12 -12 -11 -9 -6 -7 -7 -6 -5 -4 -4 -4 -4 -3 -2 -1 0 3 5 7 8 9 10 11 12 13 14 14 15 15 15
-10 -10 -11 -11 -11 -12 -12 -12 -12 -12 -12 -12 -12 -12 -12 -10 -10 -9 -7 -6 -6 -5 -5 -4 -4 -3 -3 -2 -1 1 4 5 7 8 9 11 12 13 14 14 14 15 15
-10 -10 -11 -11 -11 -12 -12 -12 -12 -13 -13 -13 -13 -12 -12 -12 -12 -11 -9 -7 -7 -6 -5 -5 -4 -4 -3 -2 -1 0 2 4 6 7 9 10 11 12 13 14 14 14 15
-10 -11 -11 -11 -11 -12 -12 -12 -12 -12 -13 -13 -13 -13 -13 -12 -12 -11 -10 -8 -7 -6 -6 -5 -5 -4 -3 -3 -2 -0 1 3 4 6 8 9 10 12 13 14 14 14 15
-10 -10 -11 -11 -11 -11 -11 -12 -12 -12 -12 -13 -13 -13 -13 -12 -12 -11 -10 -9 -8 -7 -6 -5 -5 -4 -4 -3 -2 -1 0 2 4 5 7 8 10 11 12 13 14 14 14
-11 -10 -11 -11 -11 -11 -11 -11 -11 -12 -12 -12 -12 -12 -12 -12 -12 -11 -11 -10 -8 -7 -6 -5 -4 -4 -4 -3 -3 -2 -0 2 3 5 6 8 9 10 12 13 13 14 14
-11 -11 -11 -11 -11 -11 -11 -11 -11 -11 -11 -12 -12 -12 -12 -12 -11 -11 -10 -10 -9 -7 -6 -5 -4 -4 -4 -4 -3 -2 -1 1 2 4 6 7 8 10 11 12 13 13 14
-11 -11 -11 -11 -11 -11 -11 -11 -11 -11 -11 -11 -11 -11 -11 -11 -10 -10 -10 -10 -9 -8 -7 -5 -5 -5 -5 -4 -3 -3 -1 0 2 3 5 6 7 9 10 11 12 13 13
-11 -11 -11 -11 -11 -11 -11 -11 -11 -11 -11 -11 -11 -10 -10 -10 -10 -10 -9 -9 -9 -9 -8 -7 -6 -5 -5 -4 -4 -3 -1 -0 2 3 5 6 7 8 9 10 11 12 13
-11 -12 -12 -11 -11 -11 -11 -11 -11 -11 -11 -11 -11 -11 -10 -10 -10 -10 -9 -9 -9 -9 -8 -7 -7 -6 -6 -5 -4 -3 -2 -0 1 3 4 5 7 8 9 10 11 11 12
-11 -12 -12 -12 -11 -11 -11 -11 -12 -12 -11 -11 -11 -11 -11 -11 -10 -10 -10 -9 -9 -9 -9 -8 -7 -7 -6 -5 -4 -3 -1 -0 1 2 4 5 6 7 8 9 10 11 11
-11 -12 -12 -12 -12 -11 -11 -12 -12 -12 -12 -12 -12 -12 -11 -11 -11 -10 -10 -10 -10 -9 -9 -9 -8 -7 -6 -5 -4 -3 -2 -0 1 2 3 5 6 7 8 9 10 11 11
-11 -11 -12 -12 -12 -11 -11 -12 -12 -12 -12 -12 -12 -12 -12 -12 -11 -11 -10 -10 -10 -10 -9 -9 -8 -8 -7 -6 -5 -3 -2 -1 1 2 3 4 5 7 7 8 9 10 11
-11 -11 -11 -11 -11 -11 -11 -11 -12 -12 -12 -12 -12 -12 -12 -12 -11 -11 -11 -11 -11 -10 -10 -9 -9 -8 -8 -7 -6 -4 -2 -1 1 2 3 4 5 6 7 8 9 10 11
-10 -11 -11 -11 -11 -11 -11 -11 -11 -12 -12 -12 -12 -13 -12 -12 -12 -11 -11 -11 -11 -11 -11 -10 -10 -10 -9 -8 -7 -5 -4 -1 1 2 3 4 5 6 7 8 9 10 11
-10 -10 -11 -11 -11 -11 -11 -11 -11 -11 -12 -12 -12 -13 -12 -12 -12 -11 -12 -12 -12 -12 -11 -11 -11 -11 -10 -9 -8 -6 -4 -3 -0 2 3 4 5 6 7 8 8 9 10
-10 -10 -10 -11 -11 -11 -11 -11 -11 -11 -11 -12 -12 -13 -13 -12 -12 -11 -12 -12 -12 -12 -12 -11 -11 -11 -10 -9 -8 -7 -5 -3 -1 1 2 4 5 6 6 7 8 9 10
-9 -10 -10 -10 -10 -10 -10 -10 -11 -11 -11 -12 -12 -12 -13 -12 -12 -12 -12 -12 -12 -12 -11 -11 -11 -11 -10 -9 -8 -6 -5 -3 -1 1 2 3 4 5 6 7 8 9 10
-9 -9 -10 -10 -10 -10 -10 -10 -10 -10 -11 -11 -12 -12 -13 -13 -13 -13 -13 -13 -12 -12 -11 -10 -10 -10 -9 -8 -7 -6 -5 -3 -2 0 2 3 4 5 6 6 7 8 9
Wind_Speed
15 17 17 17 18 18 19 20 20 22 22 21 21 22 22 22 22 22 20 24 27 29 28 28 27 27 27 27 27 27 27 27 26 27 31 34 35 35 36 36 34 32 31
16 17 17 17 18 18 19 20 21 21 19 19 21 22 23 23 22 22 22 23 26 27 27 26 26 26 26 26 26 27 27 28 27 27 29 33 35 36 37 37 36 34 33
17 17 17 17 18 19 21 20 20 19 18 18 19 21 20 22 22 23 23 21 21 22 23 23 23 23 24 25 25 26 27 28 28 27 27 31 35 36 37 37 37 36 35
17 17 16 17 19 20 19 17 16 16 16 17 17 17 18 19 22 23 22 21 19 17 18 20 20 21 22 23 24 25 26 27 28 28 28 29 33 37 37 38 38 38 36
18 18 16 17 19 18 17 16 15 16 17 18 18 18 18 18 19 20 20 19 18 16 15 15 16 19 20 21 23 23 24 25 27 28 28 28 31 36 37 38 38 38 38
18 17 16 18 18 16 14 15 18 17 17 17 18 19 18 19 18 17 16 14 13 14 13 13 13 14 17 19 21 22 23 24 25 27 28 28 30 33 37 38 39 39 38
17 17 16 17 17 15 16 18 17 19 17 16 17 18 19 19 17 13 10 10 11 12 12 13 13 13 13 17 19 21 22 23 24 25 26 26 28 32 35 38 38 39 39
17 16 17 17 17 15 18 18 18 16 17 15 16 17 15 15 8 10 11 11 12 10 11 13 14 14 14 13 15 19 21 23 24 25 24 24 25 30 34 37 38 39 39
17 17 18 18 18 17 16 19 19 20 17 17 14 12 11 11 15 12 14 11 10 11 12 12 13 14 15 14 15 16 18 20 23 24 24 23 24 26 32 36 37 38 38
17 17 18 19 19 17 17 18 18 18 18 16 15 13 13 14 12 11 11 13 15 14 13 12 13 13 14 13 14 17 18 20 22 22 23 22 22 25 29 35 37 37 37
16 17 18 19 19 17 18 19 19 18 15 15 15 14 15 14 15 14 15 14 13 12 12 13 12 12 12 13 12 14 16 18 20 20 20 20 19 21 25 30 36 36 36
14 17 19 19 19 18 18 18 18 18 15 16 14 13 13 12 12 12 14 15 14 14 14 12 12 11 10 11 12 14 16 18 19 19 18 17 17 15 18 24 29 35 36
13 16 19 19 19 19 20 19 16 16 15 15 14 13 12 13 13 13 13 14 16 14 15 12 10 10 9 9 10 14 17 18 18 18 17 15 13 12 12 15 22 30 36
13 18 19 19 20 20 20 18 14 14 13 13 14 14 12 12 12 12 12 13 14 14 13 13 10 9 8 8 11 16 14 17 17 18 17 14 12 10 10 10 12 20 28
15 18 19 18 19 19 19 17 13 14 13 13 12 13 11 11 10 10 10 11 11 13 14 14 11 10 9 10 13 13 13 16 17 18 17 14 12 10 8 8 8 12 19
16 17 17 17 17 18 18 15 15 14 15 13 11 12 12 10 10 9 9 9 10 11 13 13 13 14 13 12 15 14 14 18 19 19 18 15 13 9 8 8 10 12 15
16 15 16 16 16 16 16 15 15 15 15 15 14 14 14 13 11 10 9 9 9 10 12 14 13 14 15 14 13 12 12 12 11 16 17 16 13 10 8 8 10 13 15
15 15 16 15 15 15 15 15 15 15 14 15 15 15 16 14 15 12 11 11 10 11 12 15 14 13 14 14 13 13 11 10 10 13 15 15 13 11 10 9 11 14 17
14 15 15 15 15 15 15 13 12 13 13 13 14 15 15 16 16 14 14 13 12 12 11 12 13 12 11 11 12 11 11 10 10 11 13 14 14 11 10 10 12 15 18
13 14 15 15 15 14 13 12 10 10 11 12 13 14 15 15 17 16 14 14 14 13 12 11 11 10 10 10 9 8 7 7 8 8 10 10 11 11 10 11 13 15 19
13 13 14 15 15 13 13 12 7 9 10 12 13 14 15 18 21 17 14 14 14 12 12 11 10 10 9 9 8 7 8 8 7 5 6 8 8 7 7 9 12 14 19
13 13 13 14 15 13 20 20 11 9 10 12 13 14 16 16 21 20 20 19 17 14 13 11 10 11 11 11 10 9 8 6 4 2 4 6 6 7 5 5 9 13 18
13 13 14 14 15 17 22 22 17 11 11 12 13 14 14 15 20 15 16 18 16 17 15 12 11 11 12 12 12 11 9 7 6 6 4 5 6 6 4 4 8 13 16
12 12 14 15 15 16 22 23 20 12 11 11 12 14 15 17 18 19 15 14 14 12 13 10 10 11 11 12 11 11 11 10 10 8 5 3 4 4 3 2 6 12 15
12 12 13 14 15 17 21 23 21 11 9 11 11 12 15 16 22 24 17 16 16 13 13 16 15 13 14 14 11 8 7 6 4 2 1 2 1 2 3 2 3 9 13
12 13 13 14 15 16 20 23 22 9 8 9 11 11 15 19 23 23 16 15 16 16 14 14 13 12 10 10 11 7 6 5 4 3 5 4 1 1 2 1 1 4 8
Wind_Direction
332 330 326 325 323 322 322 321 318 318 315 313 310 308 306 304 300 296 293 291 292 292 291 290 288 285 283 281 280 278 277 273 265 253 238 229 223 215 208 203 199 197 196
329 326 323 321 320 320 320 316 314 313 311 310 308 306 303 300 296 294 291 290 288 287 287 286 285 283 280 279 277 275 273 271 266 257 245 233 225 219 212 205 201 199 197
330 327 322 320 320 320 317 314 313 311 310 309 307 305 302 298 295 292 290 287 285 282 280 281 281 281 280 280 278 276 271 268 266 259 252 238 227 220 215 208 203 200 198
333 329 323 321 321 319 316 314 313 312 311 309 307 305 302 297 293 290 287 282 279 277 278 276 279 282 281 281 280 277 273 268 264 260 255 245 232 222 216 211 206 202 200
334 330 323 320 321 318 315 313 312 311 309 308 305 303 300 296 292 287 281 277 273 271 273 276 281 282 282 281 280 280 279 273 266 261 255 249 237 225 217 213 208 204 202
332 329 322 321 321 317 315 314 312 309 306 306 305 302 300 295 284 276 274 271 270 271 274 282 287 283 280 280 280 280 281 280 273 265 257 251 241 229 219 213 210 207 204
330 326 322 320 319 315 313 310 309 308 307 307 306 306 304 293 279 272 272 276 276 278 280 284 286 286 285 280 279 280 278 280 281 273 262 253 244 232 221 214 211 208 205
326 323 319 318 316 314 311 310 309 306 304 305 307 308 310 308 286 319 299 284 282 287 287 286 286 285 283 283 279 280 280 279 279 277 270 258 248 236 223 216 212 209 206
322 319 318 317 315 313 309 309 308 303 303 302 296 295 298 301 321 299 293 288 293 298 293 290 286 285 283 279 278 276 277 279 279 277 273 263 251 240 227 217 213 211 207
321 321 320 318 315 313 310 309 306 301 298 296 294 288 280 284 289 297 297 299 298 292 290 290 289 286 281 276 273 275 279 281 279 276 273 266 255 243 231 219 213 211 208
323 323 324 322 320 317 314 311 307 302 296 291 291 290 286 283 272 273 286 294 295 293 291 291 287 283 282 277 276 276 285 288 285 278 276 270 263 250 236 223 213 210 209
324 327 329 326 324 322 318 315 311 305 298 291 288 285 283 281 280 280 285 292 295 296 294 290 284 281 280 280 280 289 295 293 290 284 281 278 269 264 250 233 216 209 208
326 328 329 328 326 324 323 321 317 313 305 297 290 285 280 275 275 275 277 285 291 293 292 287 282 282 281 282 284 295 294 290 290 289 283 280 275 272 267 250 227 213 208
322 323 326 325 326 326 327 328 322 321 314 305 295 289 282 278 275 272 274 282 290 294 294 294 293 289 290 292 290 297 288 284 286 288 284 278 272 273 273 265 242 219 210
321 322 324 326 328 330 330 331 328 329 323 314 306 300 293 287 283 279 277 278 284 294 299 302 304 301 302 295 291 287 283 281 283 284 280 273 263 264 274 262 247 223 212
322 322 325 327 329 331 331 331 331 337 335 332 325 317 311 307 305 300 296 290 287 287 290 295 300 299 300 294 288 284 279 279 275 273 272 265 254 248 260 262 238 218 205
322 323 325 327 329 330 330 329 333 335 337 337 339 336 331 324 323 318 312 307 301 297 295 298 300 301 301 297 291 282 276 268 263 259 260 257 247 236 243 256 238 213 197
322 322 324 325 327 329 328 327 332 334 336 337 338 338 337 336 334 330 326 320 316 309 302 301 302 304 304 302 297 288 275 263 256 252 250 249 243 232 233 246 241 213 193
322 323 324 324 324 325 324 323 329 332 334 335 335 335 333 333 334 335 332 329 323 317 308 302 304 306 306 308 306 292 278 262 256 248 242 242 236 230 229 239 240 213 191
322 323 322 320 320 320 320 315 317 328 333 335 334 333 331 331 332 333 334 333 329 322 315 310 308 312 314 318 313 304 292 279 263 249 235 230 224 226 227 234 234 212 194
320 320 319 319 319 319 316 316 304 324 334 337 336 334 331 333 334 336 337 335 332 327 322 318 316 317 323 328 324 314 304 298 269 247 234 220 212 214 217 231 232 209 195
318 319 316 315 317 317 319 327 331 325 335 338 338 336 333 333 335 336 335 336 335 330 328 325 318 319 320 322 322 318 314 306 272 292 262 224 205 205 209 220 219 199 190
315 314 313 314 315 316 320 324 326 324 327 332 335 335 336 335 337 334 337 337 331 330 330 327 316 316 315 319 318 316 316 309 295 314 300 232 205 204 202 223 210 191 185
314 310 311 314 316 316 320 322 321 317 317 325 330 333 335 336 336 345 342 335 331 329 328 323 314 313 312 314 313 307 302 298 284 270 254 238 200 193 181 197 207 192 181
311 309 311 315 316 316 319 319 320 311 315 322 328 333 336 336 341 349 346 338 335 336 335 330 327 323 323 322 326 319 313 303 287 283 282 261 203 170 161 184 204 191 179
310 313 314 317 316 314 315 317 320 313 317 324 331 336 337 342 347 350 348 342 340 340 336 333 331 330 330 327 333 329 314 303 300 316 357 341 323 139 129 99 191 182 176
Height
1542 1536 1531 1525 1520 1515 1509 1504 1499 1494 1489 1484 1480 1475 1471 1468 1464 1460 1457 1455 1453 1452 1451 1451 1451 1452 1454 1457 1459 1462 1465 1469 1473 1477 1482 1487 1492 1497 1502 1508 1513 1518 1523
1538 1532 1526 1521 1516 1510 1505 1499 1494 1488 1483 1478 1473 1469 1464 1460 1456 1453 1450 1447 1445 1444 1443 1442 1443 1444 1446 1448 1450 1453 1456 1460 1464 1469 1473 1478 1484 1489 1495 1501 1506 1512 1517
1534 1528 1522 1517 1511 1506 1500 1494 1489 1484 1478 1472 1466 1462 1457 1453 1449 1446 1443 1440 1438 1436 1435 1434 1434 1435 1437 1439 1441 1444 1447 1451 1455 1460 1464 1470 1476 1482 1488 1494 1500 1506 1511
1530 1524 1519 1513 1508 1502 1496 1491 1485 1479 1473 1467 1461 1455 1450 1445 1441 1438 1436 1433 1431 1429 1428 1427 1427 1427 1428 1430 1432 1435 1439 1442 1446 1450 1455 1461 1467 1473 1479 1486 1492 1499 1505
1527 1521 1515 1510 1504 1498 1493 1487 1481 1476 1469 1462 1456 1449 1444 1438 1434 1431 1428 1426 1425 1423 1422 1421 1420 1418 1419 1421 1423 1426 1429 1433 1437 1442 1446 1452 1458 1465 1471 1478 1484 1491 1498
1524 1518 1513 1507 1501 1495 1489 1483 1478 1471 1465 1458 1451 1444 1438 1432 1427 1424 1422 1421 1419 1418 1417 1416 1414 1413 1412 1413 1414 1416 1420 1424 1428 1433 1438 1443 1449 1455 1462 1469 1476 1483 1491
1521 1515 1510 1503 1498 1491 1485 1479 1473 1467 1461 1455 1447 1439 1432 1426 1421 1419 1417 1416 1414 1413 1411 1410 1408 1407 1406 1406 1406 1408 1411 1415 1420 1424 1429 1434 1440 1446 1453 1460 1468 1476 1483
1518 1512 1506 1500 1494 1488 1481 1476 1470 1463 1456 1452 1446 1437 1428 1423 1416 1414 1412 1411 1410 1408 1406 1404 1403 1401 1400 1399 1399 1400 1403 1406 1411 1416 1420 1425 1431 1437 1444 1451 1459 1467 1475
1515 1509 1503 1497 1491 1485 1478 1471 1465 1459 1452 1447 1443 1438 1431 1422 1417 1411 1409 1407 1405 1403 1401 1399 1397 1395 1394 1393 1392 1394 1396 1398 1403 1407 1412 1417 1422 1428 1434 1442 1450 1458 1466
1512 1506 1500 1494 1488 1481 1474 1467 1461 1454 1448 1441 1437 1433 1430 1424 1420 1411 1407 1404 1401 1398 1396 1393 1391 1389 1388 1387 1386 1387 1389 1391 1395 1399 1404 1409 1414 1419 1425 1432 1440 1449 1457
1510 1504 1498 1491 1485 1478 1471 1463 1456 1449 1443 1437 1432 1428 1424 1421 1417 1412 1404 1400 1396 1393 1391 1388 1386 1384 1382 1381 1381 1381 1382 1384 1387 1391 1396 1400 1405 1411 1417 1423 1430 1439 1448
1507 1501 1495 1488 1482 1475 1468 1460 1452 1445 1438 1433 1428 1423 1420 1416 1412 1408 1403 1397 1393 1389 1386 1383 1381 1379 1377 1376 1375 1375 1375 1377 1380 1384 1388 1392 1397 1403 1409 1416 1422 1430 1439
1504 1498 1492 1485 1479 1472 1465 1458 1450 1442 1435 1429 1424 1419 1415 1411 1408 1404 1401 1395 1390 1385 1381 1379 1376 1374 1373 1371 1370 1369 1369 1371 1374 1377 1381 1385 1390 1395 1401 1408 1414 1421 1430
1501 1495 1489 1483 1477 1470 1463 1456 1448 1441 1433 1427 1421 1416 1411 1406 1403 1400 1397 1393 1387 1382 1378 1375 1372 1370 1368 1366 1365 1364 1364 1365 1368 1371 1374 1379 1383 1389 1394 1400 1406 1413 1421
1498 1492 1487 1481 1475 1468 1462 1455 1448 1441 1433 1426 1420 1414 1408 1404 1400 1396 1393 1390 1387 1380 1374 1371 1369 1366 1364 1362 1360 1359 1359 1360 1362 1364 1368 1372 1377 1382 1388 1393 1399 1406 1414
1496 1490 1484 1478 1472 1466 1460 1454 1447 1440 1433 1427 1420 1414 1408 1403 1398 1394 1390 1387 1383 1379 1373 1368 1365 1362 1360 1357 1355 1354 1354 1354 1356 1358 1362 1367 1372 1377 1382 1388 1394 1400 1407
1493 1487 1482 1476 1470 1464 1458 1452 1446 1439 1433 1426 1420 1414 1408 1402 1397 1392 1388 1384 1380 1376 1371 1365 1362 1358 1355 1352 1350 1349 1349 1349 1351 1353 1357 1361 1366 1371 1377 1382 1388 1394 1401
1491 1485 1479 1473 1467 1462 1456 1450 1444 1438 1431 1425 1419 1413 1407 1402 1396 1391 1386 1382 1377 1373 1369 1362 1357 1353 1350 1347 1344 1343 1344 1345 1346 1349 1351 1355 1360 1366 1372 1376 1382 1389 1395
1488 1482 1476 1470 1465 1459 1454 1449 1443 1437 1430 1424 1418 1412 1406 1401 1395 1390 1385 1380 1374 1370 1365 1360 1354 1350 1345 1343 1340 1339 1339 1340 1342 1344 1346 1350 1355 1361 1367 1372 1377 1383 1390
1486 1479 1473 1467 1462 1456 1451 1446 1441 1435 1429 1423 1417 1411 1405 1400 1395 1389 1383 1378 1372 1367 1362 1357 1352 1347 1343 1340 1338 1336 1336 1336 1338 1340 1343 1346 1351 1356 1362 1368 1373 1379 1386
1483 1477 1471 1464 1459 1454 1448 1444 1438 1433 1427 1421 1415 1409 1404 1399 1393 1388 1382 1376 1370 1364 1359 1354 1350 1345 1341 1337 1335 1333 1333 1333 1334 1336 1339 1343 1347 1352 1357 1363 1368 1374 1381
1481 1475 1468 1462 1456 1451 1446 1442 1437 1431 1426 1420 1414 1408 1402 1397 1391 1385 1379 1373 1368 1362 1357 1352 1348 1344 1340 1336 1334 1332 1331 1331 1332 1334 1335 1339 1343 1348 1353 1359 1364 1370 1377
1479 1473 1466 1460 1454 1448 1443 1439 1434 1429 1424 1418 1412 1406 1401 1395 1389 1382 1376 1370 1364 1360 1355 1351 1346 1342 1338 1335 1332 1330 1329 1328 1328 1329 1333 1335 1339 1343 1349 1355 1359 1366 1373
1476 1470 1464 1459 1453 1447 1441 1436 1431 1426 1421 1416 1411 1405 1400 1394 1387 1381 1373 1367 1362 1356 1351 1347 1343 1339 1335 1332 1330 1328 1327 1326 1326 1328 1330 1333 1336 1340 1345 1350 1356 1363 1369
1474 1468 1463 1457 1451 1445 1439 1433 1428 1422 1418 1413 1409 1404 1398 1392 1386 1379 1372 1366 1360 1354 1348 1343 1339 1335 1332 1329 1327 1326 1326 1326 1326 1327 1329 1331 1334 1338 1343 1348 1353 1359 1366
1471 1466 1461 1456 1450 1444 1437 1431 1425 1420 1415 1411 1407 1402 1397 1391 1385 1378 1371 1365 1358 1352 1345 1340 1336 1332 1329 1326 1325 1324 1324 1324 1324 1326 1327 1330 1332 1337 1341 1345 1351 1356 1362